{"data":{"norad_id":48058,"epoch":"2026-09-19T22:10:09.050304Z","epoch_age_seconds":54061,"freshness":"FRESH","line1":"1 48058U 21025S   26262.92371586 -.00000314  00000+0 -89363-3 0  9995","line2":"2 48058  87.8916 301.3768 0002011  98.1080 262.0277 13.13470672265928","mean_motion":13.13470672,"eccentricity":0.0002011,"inclination_deg":87.8916,"raan_deg":301.3768,"arg_perigee_deg":98.108,"mean_anomaly_deg":262.0277,"bstar":-0.00089363,"rev_number":26592,"period_min":109.63320542265,"perigee_km":1208.2368851579,"apogee_km":1211.2887384622,"semimajor_km":7587.8998118101,"source":"CELESTRAK","updated_at":"2026-09-20T09:00:44.587239Z"}}